Weather History for K1A6 - October, 2013

Change the Weather History Date:

Saturday, October 19, 2013

  Actual Average (KLOZ) Record (KLOZ)
Temperature  
Mean Temperature 51 °F 56 °F  
Max Temperature 64 °F 69 °F 84 °F (2005)
Min Temperature 40 °F 44 °F 29 °F (2009)
Degree Days  
Heating Degree Days 14 9  
Month to date heating degree days 129  
Since 1 July heating degree days 176  
Cooling Degree Days 0 0  
Month to date cooling degree days 17  
Growing Degree Days 1 (Base 50)    
Moisture  
Dew Point 46 °F    
Average Humidity 89    
Maximum Humidity 100    
Minimum Humidity 60    
Precipitation  
Precipitation 0.00 in 0.09 in 2.04 in (1993)
Month to date precipitation 1.78  
Sea Level Pressure  
Sea Level Pressure 29.98 in    
Wind  
Wind Speed 1 mph (WNW)    
Max Wind Speed 12 mph    
Max Gust Speed 18 mph    
Visibility 8 miles    
Events Fog , Rain    
T = Trace of Precipitation, MM = Missing Value Source: NWS Daily Summary

Daily Weather History Graph

Daily Weather History Graph

Search for Another Location

Airport or City:

Trip Planner

Search our weather history database for the weather conditions in past years. The results will help you decide how hot, cold, wet, or windy it might be!

Date:

Astronomy

Oct. 19, 2013 Rise Set
Actual Time 6:46 AM CDT 5:52 PM CDT
Civil Twilight 6:19 AM CDT 6:19 PM CDT
Nautical Twilight 5:49 AM CDT 6:49 PM CDT
Astronomical Twilight 5:19 AM CDT 7:19 PM CDT
Moon 6:22 PM CDT (10/19) 7:21 AM CDT (10/19)
Length of Visible Light 11h 59m
Length of Day
11h 06m
Waxing Gibbous, 99% of the Moon is Illuminated
Oct 19
Waxing Gibbous
Oct 26
Last Quarter
Nov 3
New
Nov 9
First Quarter
Nov 17
Full

Hourly Weather History & Observations

Time (CDT) Temp. Windchill Dew Point Humidity Pressure Visibility Wind Dir Wind Speed Gust Speed Precip Events Conditions
12:15 AM 46.9 °F - 46.9 °F 100% 30.01 in 0.8 mi Calm Calm - N/A   Overcast
12:35 AM 47.1 °F - 47.1 °F 100% 30.00 in 0.5 mi Calm Calm - N/A Fog Fog
12:55 AM 46.9 °F - 46.9 °F 100% 30.00 in 0.8 mi Calm Calm - N/A   Overcast
1:15 AM 46.9 °F - 46.9 °F 100% 30.01 in 1.8 mi Calm Calm - N/A   Overcast
1:35 AM 47.3 °F - 47.3 °F 100% 30.00 in 3.0 mi Calm Calm - N/A   Overcast
1:55 AM 46.9 °F - 46.9 °F 100% 30.00 in 4.0 mi Calm Calm - N/A   Overcast
2:15 AM 46.8 °F - 46.8 °F 100% 29.99 in 4.0 mi Calm Calm - N/A   Overcast
2:35 AM 46.9 °F - 46.9 °F 100% 29.98 in 3.0 mi Calm Calm - N/A   Overcast
2:55 AM 46.9 °F - 46.9 °F 100% 29.98 in 2.5 mi Calm Calm - N/A   Overcast
3:15 AM 46.6 °F - 46.6 °F 100% 29.97 in 3.0 mi Calm Calm - N/A   Overcast
3:35 AM 46.6 °F - 46.6 °F 100% 29.97 in 2.0 mi Calm Calm - N/A   Overcast
3:55 AM 46.4 °F - 46.4 °F 100% 29.97 in 2.0 mi Calm Calm - N/A   Overcast
4:15 AM 46.6 °F - 46.6 °F 100% 29.97 in 1.8 mi Calm Calm - N/A   Overcast
4:35 AM 46.4 °F - 46.4 °F 100% 29.97 in 2.0 mi Calm Calm - N/A   Overcast
4:55 AM 46.6 °F - 46.4 °F 99% 29.97 in 7.0 mi Calm Calm - N/A   Overcast
5:15 AM 46.8 °F - 46.4 °F 99% 29.97 in 7.0 mi Calm Calm - N/A   Overcast
5:35 AM 46.6 °F - 46.4 °F 99% 29.97 in 5.0 mi Calm Calm - N/A   Overcast
5:55 AM 46.8 °F - 46.8 °F 100% 29.96 in 4.0 mi Calm Calm - N/A   Overcast
6:15 AM 46.9 °F - 46.8 °F 99% 29.95 in 3.0 mi Calm Calm - N/A   Overcast
6:35 AM 46.8 °F - 46.6 °F 99% 29.95 in 5.0 mi Calm Calm - N/A   Overcast
6:55 AM 46.8 °F - 46.8 °F 100% 29.95 in 5.0 mi Calm Calm - N/A   Overcast
7:15 AM 46.9 °F - 46.4 °F 98% 29.96 in 7.0 mi Calm Calm - N/A   Overcast
7:35 AM 47.3 °F - 46.4 °F 97% 29.96 in 10.0 mi Calm Calm - N/A   Overcast
7:55 AM 47.3 °F - 46.4 °F 97% 29.94 in 10.0 mi Calm Calm - N/A   Overcast
8:15 AM 48.2 °F - 46.9 °F 95% 29.94 in 10.0 mi Calm Calm - N/A   Overcast
8:35 AM 48.6 °F - 46.9 °F 94% 29.95 in 10.0 mi Calm Calm - N/A   Overcast
8:55 AM 49.3 °F - 47.3 °F 93% 29.95 in 10.0 mi Calm Calm - N/A   Overcast
9:15 AM 50.0 °F - 47.7 °F 92% 29.94 in 10.0 mi Calm Calm - N/A   Mostly Cloudy
9:35 AM 50.9 °F - 48.4 °F 91% 29.93 in 10.0 mi Calm Calm - N/A   Mostly Cloudy
9:55 AM 52.0 °F - 48.2 °F 87% 29.95 in 10.0 mi Calm Calm - N/A   Scattered Clouds
10:15 AM 53.4 °F - 49.6 °F 87% 29.94 in 10.0 mi NW 3.5 mph - N/A   Scattered Clouds
10:35 AM 55.0 °F - 49.3 °F 81% 29.95 in 10.0 mi Calm Calm - N/A   Scattered Clouds
10:55 AM 55.4 °F - 50.0 °F 82% 29.92 in 10.0 mi Calm Calm - N/A   Overcast
11:15 AM 56.7 °F - 49.8 °F 78% 29.93 in 10.0 mi Calm Calm - N/A   Overcast
11:35 AM 58.3 °F - 49.1 °F 71% 29.93 in 10.0 mi South 5.8 mph - N/A   Mostly Cloudy
11:55 AM 61.0 °F - 49.5 °F 66% 29.93 in 10.0 mi SSW 10.4 mph - N/A   Scattered Clouds
1:55 PM 61.3 °F - 47.3 °F 60% 29.92 in 10.0 mi WNW 10.4 mph 17.3 mph N/A   Overcast
2:15 PM 59.9 °F - 47.7 °F 64% 29.93 in 10.0 mi WNW 9.2 mph - N/A Rain Light Rain
2:35 PM 59.4 °F - 48.7 °F 68% 29.93 in 10.0 mi WNW 8.1 mph - N/A   Overcast
2:55 PM 57.6 °F - 49.1 °F 73% 29.94 in 10.0 mi North 10.4 mph - N/A   Overcast
3:15 PM 55.4 °F - 50.9 °F 85% 29.95 in 5.0 mi NW 4.6 mph - N/A   Drizzle
3:35 PM 55.6 °F - 51.1 °F 85% 29.95 in 10.0 mi NW 4.6 mph - N/A   Light Drizzle
3:55 PM 55.2 °F - 50.7 °F 85% 29.96 in 7.0 mi WNW 5.8 mph - N/A Rain Rain
4:15 PM 55.4 °F - 49.6 °F 81% 29.96 in 10.0 mi West 4.6 mph - N/A   Overcast
4:35 PM 55.9 °F - 48.7 °F 77% 29.97 in 10.0 mi Calm Calm - N/A   Overcast
4:55 PM 56.1 °F - 48.6 °F 76% 29.97 in 10.0 mi Calm Calm - N/A   Overcast
5:15 PM 54.0 °F - 48.2 °F 81% 29.98 in 10.0 mi NW 11.5 mph 18.4 mph N/A   Drizzle
5:35 PM 53.2 °F - 47.7 °F 81% 30.00 in 10.0 mi NW 10.4 mph 16.1 mph N/A   Overcast
5:55 PM 51.8 °F - 46.2 °F 81% 30.00 in 10.0 mi WNW 6.9 mph - N/A   Overcast
6:15 PM 51.8 °F - 44.4 °F 76% 30.01 in 10.0 mi West 3.5 mph - N/A   Overcast
6:35 PM 51.4 °F - 43.2 °F 73% 30.01 in 10.0 mi West 3.5 mph - N/A   Overcast
6:55 PM 51.3 °F - 42.8 °F 73% 30.02 in 10.0 mi WNW 3.5 mph - N/A   Overcast
7:15 PM 50.9 °F - 42.8 °F 74% 30.02 in 10.0 mi Calm Calm - N/A   Overcast
7:35 PM 49.6 °F - 43.7 °F 80% 30.02 in 10.0 mi Calm Calm - N/A   Mostly Cloudy
7:55 PM 48.4 °F - 43.0 °F 82% 30.02 in 10.0 mi Calm Calm - N/A   Scattered Clouds
8:15 PM 47.3 °F - 43.7 °F 87% 30.02 in 10.0 mi Calm Calm - N/A   Mostly Cloudy
8:35 PM 46.6 °F - 43.3 °F 88% 30.03 in 10.0 mi Calm Calm - N/A   Scattered Clouds
8:55 PM 45.1 °F - 43.0 °F 92% 30.03 in 10.0 mi Calm Calm - N/A   Scattered Clouds
9:15 PM 44.6 °F - 42.8 °F 93% 30.04 in 10.0 mi Calm Calm - N/A   Scattered Clouds
9:35 PM 44.2 °F - 42.8 °F 95% 30.05 in 10.0 mi Calm Calm - N/A   Mostly Cloudy
9:55 PM 44.6 °F - 43.0 °F 94% 30.06 in 10.0 mi Calm Calm - N/A   Overcast
10:15 PM 45.5 °F - 40.3 °F 82% 30.06 in 10.0 mi Calm Calm - N/A   Scattered Clouds
10:35 PM 45.0 °F 41.8 °F 39.2 °F 80% 30.06 in 10.0 mi North 5.8 mph - N/A   Clear
10:55 PM 43.7 °F - 39.6 °F 85% 30.07 in 10.0 mi Calm Calm - N/A   Clear
11:15 PM 41.9 °F - 39.7 °F 92% 30.07 in 10.0 mi Calm Calm - N/A   Clear
11:35 PM 41.4 °F - 39.7 °F 94% 30.06 in 10.0 mi Calm Calm - N/A   Scattered Clouds
11:55 PM 40.3 °F - 38.8 °F 95% 30.07 in 10.0 mi Calm Calm - N/A   Scattered Clouds